Regional Weather Roundup
Issued by NWS

Home | Current Version | Previous Version | Text Only | Print | Product List | Glossary Off
Versions: 1 2 3 4 5 6 7 8 9 10 11 12 13 14 15 16 17 18 19 20 21 22 23 24 25 26 27 28 29 30 31 32 33 34 35 36 37 38 39 40 41 42 43 44 45 46 47 48 49 50

597
ASUS45 KCYS 210610
RWRWY

WYOMING REGIONAL WEATHER ROUNDUP
NATIONAL WEATHER SERVICE CHEYENNE WY
1100 PM MST MON FEB 20 2017

NOTE:  "FAIR" INDICATES FEW OR NO CLOUDS BELOW 12,000 FEET
WITH NO SIGNIFICANT WEATHER AND/OR OBSTRUCTIONS TO VISIBILITY.

WYZ001-210700-
YELLOWSTONE NATIONAL PARK

CITY           SKY/WX    TMP DP  RH WIND       PRES   REMARKS
LK YELLOWSTONE   N/A     31  31 100 VRB3      29.89F
6HR MIN TEMP:  31; 6HR MAX TEMP:  31; 6HR PCP:  0.22;

W YELLOWSTONE  NOT AVBL

$$
WYZ002>013-054>058-071-098>099-210700-
NORTHERN WYOMING

CITY           SKY/WX    TMP DP  RH WIND       PRES   REMARKS
JACKSON        CLOUDY    34  32  93 W10       29.92S WCI  26
CODY           FAIR      41  30  65 E6        29.80R
GREYBULL       FAIR      44  30  57 SE8       29.80S
6HR MIN TEMP:  40; 6HR MAX TEMP:  52;

WORLAND        FAIR      43  32  65 SE16      29.81R
6HR MIN TEMP:  39; 6HR MAX TEMP:  53;

SHERIDAN       FAIR      55  27  34 SW38G61   29.72R
6HR MIN TEMP:  51; 6HR MAX TEMP:  59;

BUFFALO        FAIR      50  27  40 SW20G35   29.79R
6HR MIN TEMP:  50; 6HR MAX TEMP:  55;

GILLETTE       FAIR      48  31  51 SW37G49   29.76R
6HR MIN TEMP:  47; 6HR MAX TEMP:  56;

HULETT         FAIR      48  32  53 SW16G25   29.80R
NEWCASTLE      FAIR      45  30  57 SW5       29.89F

$$
WYZ014>020-022>026-101>103-210700-
CENTRAL WYOMING

CITY           SKY/WX    TMP DP  RH WIND       PRES   REMARKS
BIG PINEY      CLOUDY    31  30  96 S8        29.99S WCI  23
6HR MIN TEMP:  30; 6HR MAX TEMP:  32; 6HR PCP: TRACE;

PINEDALE       CLOUDY    32  32 100 SE13      30.00F WCI  22
DUBOIS         CLOUDY    34  28  80 S6        29.90R WCI  29
LANDER         FAIR      45  29  53 VRB3G16   29.86F
6HR MIN TEMP:  40; 6HR MAX TEMP:  47;

RIVERTON       FAIR      39  30  70 S14       29.89F WCI  31
6HR MIN TEMP:  39; 6HR MAX TEMP:  47;

CASPER         FAIR      43  30  60 SW17      29.96S
6HR MIN TEMP:  43; 6HR MAX TEMP:  50; 6HR PCP: TRACE;

DOUGLAS        FAIR      50  27  40 W30G43    29.89F
6HR MIN TEMP:  44; 6HR MAX TEMP:  52;


$$
WYZ021-027>030-104>119-210700-
SOUTHERN WYOMING

CITY           SKY/WX    TMP DP  RH WIND       PRES   REMARKS
EVANSTON       CLOUDY    37  31  78 SW26G37   30.02R WCI  25
6HR MIN TEMP:  36; 6HR MAX TEMP:  40; 6HR PCP: TRACE;

KEMMERER         N/A     36  32  87 SW23      30.01F WCI  24
FORT BRIDGER   MOCLDY    41  32  70 SW22G28   30.04F
ROCK SPRINGS   FAIR      37  29  72 VRB5G17   30.04S WCI  33
6HR MIN TEMP:  37; 6HR MAX TEMP:  42;

DIXON            N/A     41  32  69 S13G21    30.18R
RAWLINS        FAIR      40  29  64 SW28G44   30.03S WCI  29
6HR MIN TEMP:  37; 6HR MAX TEMP:  41;

SARATOGA       MOCLDY    41  27  56 SW14G21   30.08R
LARAMIE        FAIR      42  18  37 SW24G37   30.02S
6HR MIN TEMP:  34; 6HR MAX TEMP:  45;

CHEYENNE       FAIR      39  15  37 SW7       30.00R WCI  34
6HR MIN TEMP:  38; 6HR MAX TEMP:  52;

TORRINGTON     FAIR      47  20  34 W9        29.93R
6HR MIN TEMP:  46; 6HR MAX TEMP:  60;

PINE BLUFFS    FAIR      36  18  48 S14G22    29.99R WCI  27

$$




USA.gov is the U.S. government's official web portal to all federal, state and local government web resources and services.